Regional Weather Roundup
Issued by NWS Charleston, SC

Current Version | Previous Version | Graphics & Text | Print | Product List | Glossary On
Versions: 1 2 3 4 5 6 7 8 9 10 11 12 13 14 15 16 17 18 19 20 21 22 23 24 25 26 27 28 29 30 31 32 33 34 35 36 37 38 39 40 41 42 43 44 45 46 47 48 49 50
000
ASUS42 KCHS 200627
RWRCHS

Regional Weather Roundup
National Weather Service Charleston SC
100 AM EST SAT JAN 20 2018

NOTE: "fair" indicates few or no clouds below 12,000 feet with no
significant weather and/or obstructions to visibility.

Not all stations are quality controlled. Use data with caution,
especially dewpoint observations.

SCZ027-030-031-034>040-042>050-200700-
...Southeast South Carolina...

CITY           SKY/WX    TMP DP  RH WIND       PRES   REMARKS
N Charleston   FAIR      35  29  78 SW3       30.24F
6HR MIN TEMP:  35; 6HR MAX TEMP:  43;

Waterfront Prk NOT AVBL
Mount Pleasant FAIR      34  30  86 CALM      30.24S
Johns Island   FAIR      37  32  81 CALM      30.25S
Pinopolis        N/A     43  34  70 VRB3      30.16F
Moncks Corner  FAIR      30  25  80 CALM      30.23F
Summerville    FAIR      30  28  93 CALM      30.25S
Beaufort MCAS  FAIR      39  31  72 SW8       30.25F WCI  33
6HR MIN TEMP:  34; 6HR MAX TEMP:  44;

Beaufort Arpt  FAIR      37  34  87 SW5       30.24F WCI  34
Hilton Head Is FAIR      39  28  65 W6        30.26F WCI  35
Walterboro     FAIR      34  23  64 CALM      30.25F
Allendale      FAIR      32  23  69 CALM      30.23F

...Southern Midlands and Pee Dee...

CITY           SKY/WX    TMP DP  RH WIND       PRES   REMARKS
Georgetown     FAIR      36  30  80 W7        30.24F WCI  30
Kingstree      FAIR      30  23  74 CALM      30.22F
Orangeburg     FAIR      30  24  78 CALM      30.23F
6HR MIN TEMP:  29; 6HR MAX TEMP:  47;

Barnwell         N/A     30  23  74 CALM      30.23F
Aiken          FAIR      30  18  59 W5        30.25F WCI  25
Manning        FAIR      30  27  86 MISG      30.23S
Columbia       FAIR      28  23  81 W5        30.22S WCI  23
6HR MIN TEMP:  27; 6HR MAX TEMP:  42;

Sumter         FAIR      40  17  39 CALM      30.19S
6HR MIN TEMP:  32; 6HR MAX TEMP:  43;

Florence       FAIR      34  22  61 VRB3      30.21R
6HR MIN TEMP:  30; 6HR MAX TEMP:  45;

Myrtle Beach   FAIR      41  26  55 W9        30.23F
N Myrtle Beach FAIR      43  26  51 W7        30.21S
6HR MIN TEMP:  35; 6HR MAX TEMP:  45;


$$

GAZ063-065-086>088-099>101-113>116-118-119-134>141-150-200700-
...Southeast Georgia...

CITY           SKY/WX    TMP DP  RH WIND       PRES   REMARKS
Savannah Arpt  FAIR      38  23  55 CALM      30.27S
6HR MIN TEMP:  35; 6HR MAX TEMP:  50;

Hunter AAF     FAIR      34  26  72 CALM      30.23F
6HR MIN TEMP:  34; 6HR MAX TEMP:  46;

Fort Stewart   FAIR      33  25  70 CALM      30.24F
6HR MIN TEMP:  32; 6HR MAX TEMP:  44;

Statesboro     FAIR      30  24  78 CALM      30.25S
Sylvania       FAIR      33  24  70 CALM      30.25F
Claxton        FAIR      30  27  88 CALM      30.27R

...CSRA, Central and far Southeast Georgia...

CITY           SKY/WX    TMP DP  RH WIND       PRES   REMARKS
Thomson        FAIR      27  18  70 CALM      30.28F
Augusta-Bush   FAIR      25  19  78 CALM      30.24S
6HR MIN TEMP:  25; 6HR MAX TEMP:  41;

Augusta-Daniel FAIR      45  11  25 W5        30.23F
Swainsboro     FAIR      34  23  64 CALM      30.26S
Vidalia        FAIR      34  28  80 W3        30.26R
Eastman        FAIR      31  23  73 CALM      30.29F
Hazlehurst     FAIR      37  18  45 CALM      30.26R
Alma           FAIR      32  27  81 CALM      30.27S
6HR MIN TEMP:  31; 6HR MAX TEMP:  41;

Waycross       FAIR      31  27  84 SW3       30.27S
Jesup          FAIR      32  27  80 CALM      30.27S
Baxley         FAIR      32  27  80 CALM      30.26S
Brunswick      FAIR      34  32  93 S3        30.28S
Saint Simons   FAIR      37  35  92 CALM      30.27S
6HR MIN TEMP:  37; 6HR MAX TEMP:  48;


$$

SCZ027-028-034-036>038-045-046-048>050-GAZ119-141-200700-
...Lake and Supplemental Coastal Observations...

STATION/POSITION TIME  TEMP    WIND        PRES    WAVE   SWELL
                       AIR SEA DIR/SP/G            HT/PER HT/PER/DIR
                 (UTC) (F)     (DEG/KT/KT) (MB)    (FT/S) (FT/S/D)
Winyah Bay       0530   40     250/  3     1024.0S
Lake Murray      0550   45     260/  9/ 13 1022.0F
ACE Basin NERRS  0545   35        CALM     1024.0S
Fort Pulaski     0600   44 45  230/  2/  3 1024.7
Sapelo Island    0600   38     180/  4     1025.0

$$

ANZ835-935-AMZ111-154-330-350-352-354-370-450-454-472-200700-
...C-MAN and Buoy Observations...

STATION/POSITION TIME  TEMP    WIND        PRES    WAVE   SWELL
                       AIR SEA DIR/SP/G            HT/PER HT/PER/DIR
                 (UTC) (F)     (DEG/KT/KT) (MB)    (FT/S) (FT/S/D)
Buoy 41004       0610   59 69  260/ 14/ 19 1023.8
Buoy 41008       0550   50 51  210/ 10/ 12 1024.6F   2/11   2/ 80/11
Folly Beach CMAN 0600   45     230/  7/  9 1024.5F
Capers Nearshore 0608   43 47  260/ 10/ 14 1023.8S
Fripp Nearshore  0608   42 45  270/  6/  8 1023.3


STATION/POSITION TIME  TEMP    WIND        PRES    WAVE   SWELL
                       AIR SEA DIR/SP/G            HT/PER HT/PER/DIR
                 (UTC) (F)     (DEG/KT/KT) (MB)    (FT/S) (FT/S/D)
5E St. Marys GA  0600      48                N/A     2/11   2/100/11
Frying Pan Buoy  0610   56 60  260/ 16/ 19 1023.0
Buoy 41025       0610   58 71  260/ 17/ 21 1021.7
Cape Lookout NC  0600          250/  8/  9 1022.3F
Buoy 41002       0550   63 70  230/ 12/ 16 1024.1F   5/11   5/ 20/11
Buoy 41010       NOT AVBL
St Augustine FL  0600   47 50  210/  3/  4 1025.3F


$$




USA.gov is the U.S. government's official web portal to all federal, state and local government web resources and services.